User: anonymous   Login
Location: G?julap?du
(16.5372°N, 81.0979°E)
Time: 06:41:10
(UTC+00:00)
Language:

ARIANE 5 R/B - Orbit

View from above orbital plane
View from above orbital plane
View from above satellite
View from above satellite

Ground track
Ground track

The orbit is defined by the following mean orbital elements,

1 29275U          26161.38068517 +.00000000 +00000-0 +12148-2 0 00000
2 29275   6.0412  93.4937 6979432 151.3372 277.8355  2.67388927    06
Epoch (UTC): 10 June 2026 09:08:11
Eccentricity: 0.6979432
inclination: 6.0412°
perigee height: 245 km
apogee height: 30852 km
right ascension of ascending node: 93.4937°
argument of perigee: 151.3372°
revolutions per day: 2.67388927
mean anomaly at epoch: 277.8355°

The dashed part of the orbit path shows where the satellite is in the earth's shadow,  

DLR